| time (UTC) | temp F | wind direction | speed knots | gust knots | rain 1hr in | rain 24hr in | rain mn in | humidity % | barometer mb |
| 20260906114452 | 72 | 250 | 0.0 | 1.7 | 0.00 | 0.04 | 0.00 | 94 | 1011.9 |
| 20260906113953 | 71 | 250 | 0.0 | 1.7 | 0.00 | 0.04 | 0.00 | 94 | 1011.8 |
| 20260906113748 | 71 | 250 | 0.0 | 0.0 | 0.00 | 0.04 | 0.00 | 94 | 1011.7 |
| 20260906112954 | 71 | 250 | 0.0 | 0.0 | 0.00 | 0.04 | 0.00 | 94 | 1011.6 |
| 20260906112453 | 71 | 250 | 0.0 | 0.9 | 0.00 | 0.04 | 0.00 | 94 | 1011.6 |
| 20260906112312 | 71 | 250 | 0.0 | 0.9 | 0.00 | 0.04 | 0.00 | 94 | 1011.7 |
| 20260906111454 | 71 | 250 | 0.0 | 1.7 | 0.00 | 0.04 | 0.00 | 94 | 1011.6 |
| 20260906110953 | 71 | 250 | 0.0 | 1.7 | 0.00 | 0.04 | 0.00 | 94 | 1011.7 |
| 20260906110453 | 71 | 250 | 0.0 | 1.7 | 0.00 | 0.04 | 0.00 | 94 | 1011.7 |
| 20260906105955 | 71 | 250 | 0.0 | 0.0 | 0.00 | 0.04 | 0.00 | 94 | 1011.6 |
| 20260906105454 | 71 | 250 | 0.0 | 0.9 | 0.00 | 0.04 | 0.00 | 94 | 1011.5 |
| 20260906105103 | 71 | 250 | 0.0 | 0.0 | 0.00 | 0.04 | 0.00 | 94 | 1011.5 |
| 20260906105039 | 71 | 250 | 0.0 | 0.9 | 0.00 | 0.04 | 0.00 | 94 | 1011.6 |
| 20260906103952 | 71 | 250 | 0.0 | 0.9 | 0.00 | 0.04 | 0.00 | 94 | 1011.4 |
| 20260906103453 | 71 | 250 | 0.0 | 0.9 | 0.00 | 0.04 | 0.00 | 94 | 1011.4 |
| 20260906102952 | 71 | 250 | 0.0 | 0.0 | 0.00 | 0.04 | 0.00 | 94 | 1011.4 |
| 20260906102454 | 71 | 250 | 0.0 | 0.0 | 0.00 | 0.04 | 0.00 | 94 | 1011.5 |
| 20260906101951 | 71 | 250 | 0.0 | 0.0 | 0.00 | 0.04 | 0.00 | 94 | 1011.5 |
| 20260906101451 | 71 | 250 | 0.0 | 0.0 | 0.00 | 0.04 | 0.00 | 94 | 1011.5 |
| 20260906100951 | 71 | 250 | 0.0 | 0.0 | 0.00 | 0.04 | 0.00 | 94 | 1011.5 |
| 20260906100450 | 71 | 250 | 0.0 | 0.0 | 0.00 | 0.04 | 0.00 | 94 | 1011.4 |
| 20260906095947 | 71 | 250 | 0.0 | 0.0 | 0.00 | 0.04 | 0.00 | 94 | 1011.4 |
| 20260906095446 | 72 | 250 | 0.0 | 0.9 | 0.00 | 0.04 | 0.00 | 94 | 1011.5 |
| 20260906094939 | 72 | 250 | 0.0 | 0.9 | 0.00 | 0.04 | 0.00 | 94 | 1011.3 |
| 20260906094435 | 72 | 250 | 0.0 | 0.9 | 0.00 | 0.04 | 0.00 | 94 | 1011.3 |
| 20260906093931 | 71 | 250 | 0.0 | 0.0 | 0.00 | 0.04 | 0.00 | 94 | 1011.4 |
| 20260906093430 | 71 | 250 | 0.0 | 0.0 | 0.00 | 0.04 | 0.00 | 94 | 1011.5 |
| 20260906092930 | 71 | 250 | 0.0 | 0.0 | 0.00 | 0.04 | 0.00 | 94 | 1011.5 |
| 20260906092428 | 71 | 250 | 0.0 | 0.9 | 0.00 | 0.04 | 0.00 | 94 | 1011.5 |
| 20260906091930 | 71 | 250 | 0.0 | 0.9 | 0.00 | 0.04 | 0.00 | 94 | 1011.6 |
| 20260906091524 | 72 | 250 | 0.0 | 1.7 | 0.00 | 0.04 | 0.00 | 93 | 1011.5 |
| 20260906091509 | 71 | 250 | 0.0 | 1.7 | 0.00 | 0.04 | 0.00 | 93 | 1011.6 |
| 20260906090430 | 72 | 250 | 0.0 | 1.7 | 0.00 | 0.04 | 0.00 | 93 | 1011.4 |
| 20260906090223 | 72 | 250 | 0.0 | 1.7 | 0.00 | 0.04 | 0.00 | 93 | 1011.2 |
| 20260906085430 | 72 | 275 | 0.0 | 1.7 | 0.00 | 0.04 | 0.00 | 93 | 1011.3 |
| 20260906084929 | 72 | 320 | 0.9 | 0.9 | 0.00 | 0.04 | 0.00 | 93 | 1011.3 |
| 20260906084729 | 72 | 334 | 0.9 | 0.9 | 0.00 | 0.04 | 0.00 | 93 | 1011.3 |
| 20260906083930 | 72 | 334 | 0.0 | 1.7 | 0.00 | 0.04 | 0.00 | 93 | 1011.3 |
| 20260906083429 | 72 | 334 | 0.0 | 1.7 | 0.00 | 0.04 | 0.00 | 93 | 1011.4 |
| 20260906082930 | 71 | 334 | 0.0 | 1.7 | 0.00 | 0.04 | 0.00 | 94 | 1011.3 |
| 20260906082430 | 72 | 334 | 0.0 | 1.7 | 0.00 | 0.04 | 0.00 | 93 | 1011.2 |
| 20260906081927 | 72 | 334 | 0.0 | 0.9 | 0.00 | 0.04 | 0.00 | 94 | 1011.3 |
| 20260906081718 | 71 | 334 | 0.0 | 0.9 | 0.00 | 0.04 | 0.00 | 94 | 1011.2 |
| 20260906081220 | 71 | 334 | 0.0 | 0.9 | 0.00 | 0.04 | 0.00 | 94 | 1011.2 |
| 20260906080722 | 71 | 334 | 0.0 | 0.0 | 0.00 | 0.04 | 0.00 | 93 | 1011.2 |
| 20260906075921 | 71 | 334 | 0.0 | 0.0 | 0.00 | 0.04 | 0.00 | 93 | 1011.2 |
| 20260906075422 | 71 | 334 | 0.0 | 0.0 | 0.00 | 0.04 | 0.00 | 93 | 1011.2 |
| 20260906074921 | 71 | 334 | 0.0 | 0.0 | 0.00 | 0.04 | 0.00 | 93 | 1011.1 |
| 20260906074719 | 71 | 334 | 0.0 | 0.0 | 0.00 | 0.04 | 0.00 | 93 | 1011.2 |
| 20260906073923 | 71 | 334 | 0.0 | 0.0 | 0.00 | 0.04 | 0.00 | 93 | 1011.2 |
| 20260906073418 | 71 | 334 | 0.0 | 1.7 | 0.00 | 0.04 | 0.00 | 93 | 1011.1 |
| 20260906072914 | 71 | 334 | 0.0 | 1.7 | 0.00 | 0.04 | 0.00 | 93 | 1011.0 |
| 20260906072412 | 71 | 334 | 0.0 | 1.7 | 0.00 | 0.04 | 0.00 | 93 | 1011.1 |
| 20260906071913 | 71 | 334 | 0.9 | 0.9 | 0.00 | 0.04 | 0.00 | 93 | 1011.0 |
| 20260906071712 | 71 | 334 | 0.0 | 0.0 | 0.00 | 0.04 | 0.00 | 93 | 1011.1 |
| 20260906070904 | 71 | 334 | 0.0 | 0.0 | 0.00 | 0.04 | 0.00 | 93 | 1011.1 |
| 20260906070406 | 71 | 334 | 0.0 | 0.9 | 0.00 | 0.04 | 0.00 | 92 | 1011.1 |
| 20260906070209 | 71 | 334 | 0.0 | 0.9 | 0.00 | 0.04 | 0.00 | 92 | 1011.1 |
| 20260906065406 | 71 | 334 | 0.0 | 0.9 | 0.00 | 0.04 | 0.00 | 92 | 1011.2 |
| 20260906064905 | 71 | 334 | 0.0 | 0.0 | 0.00 | 0.04 | 0.00 | 92 | 1011.3 |
| 20260906064403 | 71 | 334 | 0.0 | 0.0 | 0.00 | 0.04 | 0.00 | 92 | 1011.3 |
| 20260906063903 | 71 | 334 | 0.0 | 0.0 | 0.00 | 0.04 | 0.00 | 92 | 1011.5 |
| 20260906063405 | 71 | 334 | 0.0 | 0.0 | 0.00 | 0.04 | 0.00 | 92 | 1011.6 |
| 20260906062904 | 71 | 334 | 0.0 | 0.0 | 0.00 | 0.04 | 0.00 | 92 | 1011.7 |
| 20260906062403 | 71 | 334 | 0.0 | 0.0 | 0.00 | 0.04 | 0.00 | 92 | 1011.7 |
| 20260906061903 | 71 | 334 | 0.0 | 0.0 | 0.00 | 0.04 | 0.00 | 92 | 1011.6 |
| 20260906061354 | 72 | 334 | 0.0 | 1.7 | 0.00 | 0.04 | 0.00 | 91 | 1011.8 |
| 20260906061154 | 72 | 334 | 0.0 | 1.7 | 0.00 | 0.04 | 0.00 | 91 | 1011.9 |
| 20260906060347 | 72 | 334 | 0.0 | 0.9 | 0.00 | 0.04 | 0.00 | 91 | 1012.0 |
| 20260906060200 | 72 | 334 | 0.0 | 0.9 | 0.00 | 0.04 | 0.00 | 91 | 1012.0 |
| 20260906055640 | 72 | 334 | 0.0 | 0.0 | 0.00 | 0.04 | 0.00 | 91 | 1012.0 |
| 20260906055142 | 72 | 334 | 0.0 | 0.0 | 0.00 | 0.04 | 0.00 | 90 | 1012.0 |
| 20260906054343 | 72 | 334 | 0.0 | 0.0 | 0.00 | 0.04 | 0.00 | 90 | 1012.1 |
| 20260906053840 | 72 | 334 | 0.0 | 0.0 | 0.00 | 0.04 | 0.00 | 90 | 1012.1 |
| 20260906053338 | 72 | 334 | 0.0 | 0.9 | 0.00 | 0.04 | 0.00 | 90 | 1012.2 |
| 20260906052836 | 72 | 334 | 0.0 | 0.9 | 0.00 | 0.04 | 0.00 | 90 | 1012.4 |
| 20260906052336 | 73 | 334 | 0.0 | 0.0 | 0.00 | 0.04 | 0.00 | 89 | 1012.5 |
| 20260906051832 | 73 | 334 | 0.0 | 1.7 | 0.00 | 0.04 | 0.00 | 89 | 1012.3 |
| 20260906051330 | 73 | 334 | 0.0 | 1.7 | 0.00 | 0.04 | 0.00 | 89 | 1012.3 |
| 20260906050830 | 73 | 334 | 0.0 | 1.7 | 0.00 | 0.04 | 0.00 | 89 | 1012.2 |
| 20260906050330 | 73 | 290 | 0.0 | 0.9 | 0.00 | 0.04 | 0.00 | 89 | 1012.1 |
| 20260906050139 | 73 | 290 | 0.0 | 0.0 | 0.00 | 0.04 | 0.00 | 88 | 1012.1 |
| 20260906045321 | 73 | 290 | 0.0 | 0.0 | 0.00 | 0.04 | 0.00 | 88 | 1012.2 |
| 20260906045117 | 73 | 279 | 0.0 | 0.0 | 0.00 | 0.04 | 0.00 | 88 | 1012.2 |
| 20260906044317 | 73 | 279 | 0.0 | 0.0 | 0.00 | 0.04 | 0.00 | 88 | 1012.1 |
| 20260906043809 | 73 | 279 | 0.0 | 0.0 | 0.00 | 0.04 | 0.00 | 88 | 1011.9 |
| 20260906043310 | 73 | 279 | 0.0 | 0.0 | 0.00 | 0.04 | 0.00 | 89 | 1012.0 |
| 20260906042808 | 73 | 279 | 0.0 | 0.0 | 0.00 | 0.04 | 0.00 | 88 | 1011.8 |
| 20260906042307 | 73 | 279 | 0.0 | 0.9 | 0.00 | 0.04 | 0.00 | 88 | 1011.7 |
| 20260906041802 | 73 | 279 | 0.0 | 0.9 | 0.00 | 0.04 | 0.00 | 88 | 1011.7 |
| 20260906041300 | 73 | 279 | 0.0 | 1.7 | 0.00 | 0.04 | 0.00 | 89 | 1011.8 |
| 20260906040801 | 73 | 262 | 0.9 | 1.7 | 0.00 | 0.04 | 0.00 | 89 | 1011.8 |
| 20260906040259 | 73 | 286 | 0.9 | 1.7 | 0.00 | 0.04 | 0.00 | 88 | 1011.8 |
| 20260906035753 | 73 | 306 | 0.9 | 1.7 | 0.00 | 0.04 | 0.04 | 89 | 1011.9 |
| 20260906035252 | 73 | 303 | 0.9 | 1.7 | 0.00 | 0.04 | 0.04 | 89 | 1011.9 |
| 20260906034754 | 73 | 292 | 0.9 | 2.6 | 0.00 | 0.04 | 0.04 | 89 | 1011.9 |
| 20260906034252 | 73 | 288 | 0.9 | 2.6 | 0.00 | 0.04 | 0.04 | 89 | 1011.9 |
| 20260906033751 | 73 | 265 | 0.0 | 1.7 | 0.00 | 0.04 | 0.04 | 89 | 1012.1 |
| 20260906033252 | 73 | 265 | 0.9 | 1.7 | 0.00 | 0.04 | 0.04 | 89 | 1012.1 |
| 20260906033102 | 73 | 323 | 0.0 | 1.7 | 0.00 | 0.04 | 0.04 | 89 | 1011.9 |
| 20260906032609 | 73 | 282 | 0.0 | 1.7 | 0.00 | 0.04 | 0.04 | 90 | 1012.1 |
| 20260906031752 | 73 | 282 | 0.9 | 1.7 | 0.00 | 0.04 | 0.04 | 91 | 1012.1 |
| 20260906031253 | 73 | 282 | 0.0 | 0.9 | 0.00 | 0.04 | 0.04 | 91 | 1012.2 |
| 20260906030918 | 73 | 282 | 0.0 | 0.0 | 0.00 | 0.04 | 0.04 | 91 | 1012.2 |
| 20260906030853 | 73 | 282 | 0.0 | 0.0 | 0.00 | 0.04 | 0.04 | 91 | 1012.3 |
| 20260906025751 | 73 | 282 | 0.0 | 0.0 | 0.00 | 0.04 | 0.04 | 90 | 1012.5 |
| 20260906025254 | 74 | 282 | 0.0 | 1.7 | 0.00 | 0.04 | 0.04 | 90 | 1012.4 |
| 20260906025049 | 74 | 282 | 0.0 | 1.7 | 0.00 | 0.04 | 0.04 | 90 | 1012.6 |
| 20260906024252 | 74 | 241 | 0.0 | 1.7 | 0.00 | 0.04 | 0.04 | 90 | 1012.5 |
| 20260906024043 | 74 | 314 | 0.0 | 0.9 | 0.00 | 0.04 | 0.04 | 90 | 1012.3 |
| 20260906023251 | 74 | 314 | 0.0 | 1.7 | 0.00 | 0.04 | 0.04 | 90 | 1012.4 |
| 20260906022805 | 74 | 314 | 0.0 | 1.7 | 0.00 | 0.04 | 0.04 | 89 | 1012.5 |
| 20260906022354 | 74 | 314 | 0.0 | 1.7 | 0.00 | 0.04 | 0.04 | 90 | 1012.3 |
| 20260906022331 | 74 | 314 | 0.0 | 1.7 | 0.00 | 0.04 | 0.04 | 89 | 1012.4 |
| 20260906021253 | 74 | 314 | 0.0 | 0.9 | 0.00 | 0.04 | 0.04 | 89 | 1012.3 |
| 20260906020753 | 74 | 314 | 0.9 | 1.7 | 0.00 | 0.04 | 0.04 | 88 | 1012.4 |
| 20260906020253 | 74 | 314 | 0.0 | 1.7 | 0.00 | 0.04 | 0.04 | 88 | 1012.4 |
| 20260906015753 | 74 | 314 | 0.0 | 0.9 | 0.00 | 0.04 | 0.04 | 87 | 1012.4 |
| 20260906015542 | 74 | 314 | 0.0 | 0.9 | 0.00 | 0.04 | 0.04 | 87 | 1012.4 |
| 20260906014752 | 74 | 314 | 0.9 | 1.7 | 0.00 | 0.04 | 0.04 | 88 | 1012.5 |
| 20260906014252 | 74 | 200 | 0.0 | 1.7 | 0.00 | 0.04 | 0.04 | 88 | 1012.6 |
| 20260906013752 | 74 | 200 | 0.0 | 0.9 | 0.00 | 0.04 | 0.04 | 89 | 1012.7 |
| 20260906013253 | 74 | 333 | 0.9 | 0.9 | 0.00 | 0.04 | 0.04 | 88 | 1012.5 |
| 20260906012844 | 74 | 340 | 0.9 | 1.7 | 0.01 | 0.04 | 0.04 | 87 | 1012.5 |
| 20260906012825 | 74 | 338 | 0.0 | 0.9 | 0.00 | 0.04 | 0.04 | 87 | 1012.6 |
| 20260906011753 | 75 | 178 | 0.0 | 1.7 | 0.01 | 0.04 | 0.04 | 87 | 1012.5 |
| 20260906011252 | 75 | 159 | 0.9 | 1.7 | 0.01 | 0.04 | 0.04 | 88 | 1012.5 |
| 20260906010752 | 74 | 56 | 0.9 | 1.7 | 0.01 | 0.04 | 0.04 | 87 | 1012.2 |
| 20260906010251 | 75 | 107 | 0.0 | 1.7 | 0.01 | 0.04 | 0.04 | 89 | 1012.3 |
| 20260906005752 | 74 | 247 | 0.0 | 1.7 | 0.01 | 0.03 | 0.04 | 88 | 1012.1 |
| 20260906005251 | 74 | 247 | 0.0 | 1.7 | 0.01 | 0.03 | 0.04 | 88 | 1011.9 |
| 20260906005044 | 75 | 247 | 0.0 | 1.7 | 0.01 | 0.03 | 0.04 | 88 | 1011.9 |
| 20260906004252 | 75 | 303 | 0.0 | 1.7 | 0.01 | 0.03 | 0.04 | 85 | 1011.9 |
| 20260906003753 | 75 | 204 | 0.0 | 1.7 | 0.01 | 0.03 | 0.04 | 85 | 1011.8 |
| 20260906003251 | 75 | 272 | 0.0 | 1.7 | 0.02 | 0.03 | 0.04 | 85 | 1011.7 |
| 20260906002752 | 76 | 353 | 0.0 | 2.6 | 0.03 | 0.03 | 0.03 | 85 | 1011.8 |
| 20260906002554 | 76 | 306 | 0.0 | 2.6 | 0.03 | 0.03 | 0.03 | 84 | 1012.0 |
| 20260906001754 | 76 | 305 | 0.9 | 2.6 | 0.03 | 0.03 | 0.03 | 88 | 1012.2 |
| 20260906001252 | 77 | 159 | 0.0 | 2.6 | 0.03 | 0.03 | 0.03 | 89 | 1012.2 |
| 20260906000751 | 76 | 158 | 0.9 | 1.7 | 0.03 | 0.03 | 0.03 | 89 | 1012.2 |
| 20260906000252 | 76 | 3 | 0.0 | 1.7 | 0.03 | 0.03 | 0.03 | 90 | 1011.8 |
| 20260905235752 | 76 | 354 | 0.0 | 1.7 | 0.03 | 0.00 | 0.03 | 91 | 1011.1 |
| 20260905235252 | 76 | 329 | 0.0 | 1.7 | 0.03 | 0.00 | 0.03 | 90 | 1011.0 |
| 20260905235045 | 76 | 157 | 0.9 | 1.7 | 0.03 | 0.00 | 0.03 | 89 | 1011.1 |
| 20260905234252 | 76 | 157 | 0.0 | 0.9 | 0.03 | 0.00 | 0.03 | 87 | 1010.7 |
| 20260905234046 | 77 | 157 | 0.9 | 5.2 | 0.03 | 0.00 | 0.03 | 85 | 1010.7 |
| 20260905233252 | 79 | 6 | 0.9 | 7.8 | 0.02 | 0.00 | 0.02 | 78 | 1010.3 |
| 20260905232752 | 81 | 0 | 1.7 | 7.8 | 0.01 | 0.00 | 0.00 | 70 | 1010.1 |
| 20260905232252 | 83 | 321 | 2.6 | 7.8 | 0.00 | 0.00 | 0.00 | 64 | 1010.3 |
| 20260905231751 | 85 | 320 | 2.6 | 9.6 | 0.00 | 0.00 | 0.00 | 61 | 1010.7 |
| 20260905231251 | 87 | 338 | 3.5 | 9.6 | 0.00 | 0.00 | 0.00 | 60 | 1011.1 |
| 20260905230752 | 88 | 334 | 0.9 | 6.1 | 0.00 | 0.00 | 0.00 | 57 | 1011.0 |
| 20260905230304 | 89 | 0 | 1.7 | 8.7 | 0.00 | 0.00 | 0.00 | 55 | 1010.8 |
| 20260905225753 | 89 | 17 | 2.6 | 8.7 | 0.00 | 0.00 | 0.00 | 54 | 1010.3 |
| 20260905225251 | 90 | 49 | 3.5 | 8.7 | 0.00 | 0.00 | 0.00 | 53 | 1010.2 |
| 20260905224753 | 92 | 7 | 3.5 | 7.8 | 0.00 | 0.00 | 0.00 | 57 | 1010.2 |
| 20260905224250 | 93 | 209 | 0.0 | 0.0 | 0.00 | 0.00 | 0.00 | 57 | 1009.8 |
| 20260905223751 | 93 | 209 | 0.0 | 0.0 | 0.00 | 0.00 | 0.00 | 54 | 1009.8 |
| 20260905223249 | 94 | 206 | 0.0 | 0.0 | 0.00 | 0.00 | 0.00 | 52 | 1010.0 |
| 20260905222751 | 94 | 203 | 0.0 | 0.9 | 0.00 | 0.00 | 0.00 | 51 | 1009.8 |
| 20260905222250 | 94 | 203 | 0.0 | 0.9 | 0.00 | 0.00 | 0.00 | 51 | 1009.7 |
| 20260905221749 | 93 | 203 | 0.0 | 0.9 | 0.00 | 0.00 | 0.00 | 54 | 1009.8 |
| 20260905221542 | 94 | 203 | 0.0 | 0.0 | 0.00 | 0.00 | 0.00 | 57 | 1009.8 |
| 20260905220745 | 93 | 203 | 0.0 | 0.9 | 0.00 | 0.00 | 0.00 | 54 | 1009.7 |
| 20260905220536 | 95 | 206 | 0.0 | 2.6 | 0.00 | 0.00 | 0.00 | 49 | 1009.5 |
| 20260905215734 | 96 | 159 | 0.9 | 2.6 | 0.00 | 0.00 | 0.00 | 48 | 1009.6 |
| 20260905215531 | 95 | 188 | 0.9 | 1.7 | 0.00 | 0.00 | 0.00 | 51 | 1009.7 |
| 20260905215024 | 95 | 303 | 0.0 | 1.7 | 0.00 | 0.00 | 0.00 | 55 | 1009.7 |
| 20260905214230 | 96 | 303 | 0.0 | 1.7 | 0.00 | 0.00 | 0.00 | 50 | 1009.6 |
| 20260905213731 | 97 | 47 | 0.0 | 2.6 | 0.00 | 0.00 | 0.00 | 47 | 1009.7 |
| 20260905213331 | 96 | 162 | 0.9 | 2.6 | 0.00 | 0.00 | 0.00 | 49 | 1009.6 |
| 20260905213311 | 96 | 79 | 0.9 | 2.6 | 0.00 | 0.00 | 0.00 | 49 | 1009.5 |
| 20260905212529 | 96 | 69 | 0.0 | 1.7 | 0.00 | 0.00 | 0.00 | 49 | 1009.5 |
| 20260905211729 | 96 | 157 | 0.0 | 1.7 | 0.00 | 0.00 | 0.00 | 48 | 1009.5 |
| 20260905211229 | 97 | 61 | 0.0 | 3.5 | 0.00 | 0.00 | 0.00 | 48 | 1009.6 |
| 20260905210729 | 96 | 195 | 1.7 | 3.5 | 0.00 | 0.00 | 0.00 | 49 | 1009.7 |
| 20260905210230 | 96 | 169 | 0.9 | 3.5 | 0.00 | 0.00 | 0.00 | 47 | 1009.8 |
| 20260905205730 | 97 | 30 | 0.0 | 3.5 | 0.00 | 0.00 | 0.00 | 48 | 1009.9 |
| 20260905205231 | 95 | 89 | 0.0 | 1.7 | 0.00 | 0.00 | 0.00 | 51 | 1010.0 |
| 20260905204730 | 95 | 319 | 0.0 | 1.7 | 0.00 | 0.00 | 0.00 | 50 | 1010.1 |
| 20260905204232 | 95 | 319 | 0.9 | 2.6 | 0.00 | 0.00 | 0.00 | 50 | 1010.1 |
| 20260905203729 | 96 | 257 | 0.9 | 2.6 | 0.00 | 0.00 | 0.00 | 50 | 1010.2 |
| 20260905203524 | 96 | 152 | 0.9 | 3.5 | 0.00 | 0.00 | 0.00 | 48 | 1010.3 |
| 20260905202730 | 95 | 353 | 0.0 | 3.5 | 0.00 | 0.00 | 0.00 | 52 | 1010.3 |
| 20260905202229 | 96 | 25 | 0.9 | 3.5 | 0.00 | 0.00 | 0.00 | 50 | 1010.4 |
| 20260905201730 | 97 | 193 | 0.9 | 3.5 | 0.00 | 0.00 | 0.00 | 52 | 1010.5 |
| 20260905201228 | 96 | 276 | 0.0 | 1.7 | 0.00 | 0.00 | 0.00 | 52 | 1010.5 |
| 20260905200728 | 95 | 209 | 0.0 | 1.7 | 0.00 | 0.00 | 0.00 | 52 | 1010.5 |
| 20260905200229 | 96 | 106 | 0.9 | 1.7 | 0.00 | 0.00 | 0.00 | 51 | 1010.6 |
| 20260905195729 | 93 | 141 | 0.0 | 1.7 | 0.00 | 0.00 | 0.00 | 55 | 1010.7 |
| 20260905195518 | 94 | 179 | 0.0 | 1.7 | 0.00 | 0.00 | 0.00 | 53 | 1010.8 |
| 20260905194726 | 95 | 124 | 0.0 | 1.7 | 0.00 | 0.00 | 0.00 | 51 | 1010.9 |
| 20260905194519 | 97 | 141 | 0.0 | 1.7 | 0.00 | 0.00 | 0.00 | 51 | 1011.0 |
| 20260905193723 | 98 | 86 | 0.9 | 1.7 | 0.00 | 0.00 | 0.00 | 50 | 1011.0 |
| 20260905193222 | 96 | 283 | 0.9 | 1.7 | 0.00 | 0.00 | 0.00 | 47 | 1010.9 |
| 20260905192720 | 98 | 133 | 0.9 | 1.7 | 0.00 | 0.00 | 0.00 | 54 | 1011.1 |
| 20260905192217 | 95 | 314 | 0.0 | 2.6 | 0.00 | 0.00 | 0.00 | 52 | 1011.0 |
| 20260905191710 | 96 | 0 | 1.7 | 2.6 | 0.00 | 0.00 | 0.00 | 49 | 1011.0 |
| 20260905191210 | 97 | 320 | 1.7 | 2.6 | 0.00 | 0.00 | 0.00 | 48 | 1011.0 |
| 20260905190707 | 97 | 298 | 0.9 | 2.6 | 0.00 | 0.00 | 0.00 | 47 | 1011.2 |
| 20260905190204 | 99 | 58 | 1.7 | 2.6 | 0.00 | 0.00 | 0.00 | 47 | 1011.2 |
| 20260905185704 | 98 | 35 | 0.9 | 2.6 | 0.00 | 0.00 | 0.00 | 47 | 1011.2 |
| 20260905185202 | 98 | 37 | 0.9 | 2.6 | 0.00 | 0.00 | 0.00 | 50 | 1011.3 |
| 20260905184951 | 98 | 37 | 0.9 | 3.5 | 0.00 | 0.00 | 0.00 | 47 | 1011.3 |
| 20260905184458 | 97 | 117 | 1.7 | 3.5 | 0.00 | 0.00 | 0.00 | 47 | 1011.5 |
| 20260905184043 | 97 | 172 | 0.9 | 3.5 | 0.00 | 0.00 | 0.00 | 50 | 1011.5 |
| 20260905184038 | 97 | 265 | 1.7 | 3.5 | 0.00 | 0.00 | 0.00 | 50 | 1011.5 |
| 20260905182701 | 97 | 65 | 1.7 | 3.5 | 0.00 | 0.00 | 0.00 | 51 | 1011.7 |
| 20260905182200 | 98 | 305 | 1.7 | 3.5 | 0.00 | 0.00 | 0.00 | 47 | 1011.9 |
| 20260905181702 | 99 | 127 | 0.9 | 2.6 | 0.00 | 0.00 | 0.00 | 50 | 1011.9 |
| 20260905181202 | 98 | 68 | 0.9 | 5.2 | 0.00 | 0.00 | 0.00 | 49 | 1011.9 |
| 20260905180702 | 98 | 203 | 3.5 | 5.2 | 0.00 | 0.00 | 0.00 | 51 | 1011.9 |
| 20260905180202 | 96 | 292 | 0.0 | 4.3 | 0.00 | 0.00 | 0.00 | 50 | 1012.0 |
| 20260905175703 | 97 | 326 | 1.7 | 4.3 | 0.00 | 0.00 | 0.00 | 49 | 1012.0 |
| 20260905175455 | 97 | 90 | 2.6 | 4.3 | 0.00 | 0.00 | 0.00 | 50 | 1012.1 |
| 20260905174700 | 98 | 196 | 0.9 | 3.5 | 0.00 | 0.00 | 0.00 | 50 | 1012.2 |
| 20260905174157 | 97 | 44 | 1.7 | 4.3 | 0.00 | 0.00 | 0.00 | 49 | 1012.3 |
| 20260905173656 | 98 | 93 | 0.9 | 4.3 | 0.00 | 0.00 | 0.00 | 49 | 1012.3 |
| 20260905173445 | 98 | 31 | 0.9 | 3.5 | 0.00 | 0.00 | 0.00 | 49 | 1012.4 |
| 20260905172651 | 98 | 47 | 0.9 | 4.3 | 0.00 | 0.00 | 0.00 | 53 | 1012.4 |
| 20260905172154 | 97 | 121 | 1.7 | 5.2 | 0.00 | 0.00 | 0.00 | 50 | 1012.5 |
| 20260905171655 | 97 | 27 | 1.7 | 5.2 | 0.00 | 0.00 | 0.00 | 52 | 1012.5 |
| 20260905171150 | 98 | 100 | 1.7 | 3.5 | 0.00 | 0.00 | 0.00 | 53 | 1012.7 |
| 20260905170652 | 97 | 137 | 1.7 | 4.3 | 0.00 | 0.00 | 0.00 | 55 | 1012.7 |
| 20260905170150 | 95 | 61 | 1.7 | 4.3 | 0.00 | 0.00 | 0.00 | 55 | 1012.7 |
| 20260905165958 | 95 | 245 | 0.0 | 2.6 | 0.00 | 0.00 | 0.00 | 51 | 1012.7 |
| 20260905165147 | 96 | 140 | 0.9 | 4.3 | 0.00 | 0.00 | 0.00 | 52 | 1012.7 |
| 20260905164645 | 95 | 145 | 0.9 | 4.3 | 0.00 | 0.00 | 0.00 | 54 | 1012.9 |
| 20260905164438 | 94 | 323 | 0.9 | 2.6 | 0.00 | 0.00 | 0.00 | 53 | 1012.9 |
| 20260905163644 | 95 | 35 | 0.9 | 2.6 | 0.00 | 0.00 | 0.00 | 53 | 1013.0 |
| 20260905163435 | 94 | 275 | 0.0 | 2.6 | 0.00 | 0.00 | 0.00 | 54 | 1013.0 |
| 20260905162643 | 95 | 240 | 1.7 | 2.6 | 0.00 | 0.00 | 0.00 | 54 | 1013.0 |
| 20260905162138 | 95 | 300 | 1.7 | 2.6 | 0.00 | 0.00 | 0.00 | 53 | 1013.1 |
| 20260905161637 | 94 | 134 | 0.9 | 3.5 | 0.00 | 0.00 | 0.00 | 54 | 1013.3 |
| 20260905161136 | 94 | 93 | 0.9 | 3.5 | 0.00 | 0.00 | 0.00 | 54 | 1013.4 |
| 20260905160636 | 94 | 28 | 0.9 | 2.6 | 0.00 | 0.00 | 0.00 | 53 | 1013.4 |
| 20260905160131 | 94 | 142 | 0.0 | 1.7 | 0.00 | 0.00 | 0.00 | 56 | 1013.4 |
| 20260905155630 | 93 | 59 | 0.9 | 3.5 | 0.00 | 0.00 | 0.00 | 54 | 1013.4 |
| 20260905155126 | 94 | 45 | 0.9 | 3.5 | 0.00 | 0.00 | 0.00 | 57 | 1013.5 |
| 20260905154921 | 93 | 140 | 0.9 | 2.6 | 0.00 | 0.00 | 0.00 | 54 | 1013.8 |
| 20260905154124 | 92 | 48 | 1.7 | 2.6 | 0.00 | 0.00 | 0.00 | 55 | 1013.8 |
| 20260905153623 | 92 | 283 | 0.0 | 2.6 | 0.00 | 0.00 | 0.00 | 56 | 1013.8 |
| 20260905153115 | 93 | 354 | 1.7 | 4.3 | 0.00 | 0.00 | 0.00 | 56 | 1013.8 |
| 20260905152610 | 92 | 31 | 2.6 | 4.3 | 0.00 | 0.00 | 0.00 | 59 | 1013.9 |
| 20260905152108 | 92 | 330 | 1.7 | 3.5 | 0.00 | 0.00 | 0.00 | 57 | 1013.9 |
| 20260905151607 | 92 | 0 | 1.7 | 2.6 | 0.00 | 0.00 | 0.00 | 60 | 1014.0 |
| 20260905151105 | 91 | 248 | 0.0 | 1.7 | 0.00 | 0.00 | 0.00 | 58 | 1013.9 |
| 20260905150604 | 91 | 118 | 0.0 | 1.7 | 0.00 | 0.00 | 0.00 | 59 | 1013.9 |
| 20260905150109 | 90 | 264 | 0.9 | 2.6 | 0.00 | 0.00 | 0.00 | 63 | 1013.8 |
| 20260905145858 | 90 | 0 | 1.7 | 2.6 | 0.00 | 0.00 | 0.00 | 63 | 1014.0 |
| 20260905145103 | 90 | 258 | 0.0 | 1.7 | 0.00 | 0.00 | 0.00 | 62 | 1013.9 |
| 20260905144853 | 89 | 155 | 0.0 | 1.7 | 0.00 | 0.00 | 0.00 | 63 | 1013.9 |
| 20260905144101 | 89 | 310 | 0.9 | 1.7 | 0.00 | 0.00 | 0.00 | 63 | 1014.0 |
| 20260905143551 | 89 | 316 | 0.9 | 0.9 | 0.00 | 0.00 | 0.00 | 66 | 1014.1 |
| 20260905143054 | 89 | 341 | 0.0 | 1.7 | 0.00 | 0.00 | 0.00 | 63 | 1014.1 |
| 20260905142551 | 89 | 142 | 0.0 | 1.7 | 0.00 | 0.00 | 0.00 | 66 | 1014.1 |
| 20260905142052 | 88 | 165 | 0.9 | 1.7 | 0.00 | 0.00 | 0.00 | 68 | 1014.1 |
| 20260905141551 | 87 | 147 | 0.0 | 1.7 | 0.00 | 0.00 | 0.00 | 71 | 1014.1 |
| 20260905141051 | 86 | 338 | 0.0 | 1.7 | 0.00 | 0.00 | 0.00 | 70 | 1014.1 |
| 20260905140552 | 86 | 333 | 0.0 | 3.5 | 0.00 | 0.00 | 0.00 | 73 | 1014.1 |
| 20260905140044 | 85 | 231 | 0.0 | 3.5 | 0.00 | 0.00 | 0.00 | 73 | 1014.2 |
| 20260905135541 | 85 | 334 | 1.7 | 2.6 | 0.00 | 0.00 | 0.00 | 71 | 1014.2 |
| 20260905135038 | 84 | 295 | 0.9 | 2.6 | 0.00 | 0.00 | 0.00 | 73 | 1014.2 |
| 20260905134540 | 84 | 288 | 0.0 | 1.7 | 0.00 | 0.00 | 0.00 | 75 | 1014.2 |
| 20260905134039 | 83 | 252 | 0.0 | 2.6 | 0.00 | 0.00 | 0.00 | 76 | 1014.3 |
| 20260905133842 | 82 | 351 | 0.9 | 2.6 | 0.00 | 0.00 | 0.00 | 79 | 1014.4 |
| 20260905133038 | 82 | 316 | 0.0 | 2.6 | 0.00 | 0.00 | 0.00 | 82 | 1014.2 |
| 20260905132634 | 81 | 0 | 0.9 | 1.7 | 0.00 | 0.00 | 0.00 | 82 | 1014.4 |
| 20260905132612 | 81 | 314 | 0.9 | 2.6 | 0.00 | 0.00 | 0.00 | 80 | 1014.4 |
| 20260905131825 | 81 | 319 | 0.9 | 1.7 | 0.00 | 0.00 | 0.00 | 83 | 1014.6 |
| 20260905131030 | 80 | 300 | 0.0 | 1.7 | 0.00 | 0.00 | 0.00 | 85 | 1014.5 |
| 20260905130532 | 80 | 272 | 0.9 | 1.7 | 0.00 | 0.00 | 0.00 | 86 | 1014.5 |
| 20260905130030 | 80 | 282 | 0.9 | 3.5 | 0.00 | 0.00 | 0.00 | 85 | 1014.5 |
| 20260905125530 | 79 | 329 | 1.7 | 3.5 | 0.00 | 0.00 | 0.00 | 84 | 1014.4 |
| 20260905125030 | 78 | 321 | 0.0 | 1.7 | 0.00 | 0.00 | 0.00 | 88 | 1014.4 |
| 20260905124529 | 78 | 1 | 0.0 | 0.0 | 0.00 | 0.00 | 0.00 | 89 | 1014.5 |
| 20260905124029 | 77 | 25 | 0.0 | 0.0 | 0.00 | 0.00 | 0.00 | 91 | 1014.4 |
| 20260905123530 | 76 | 25 | 0.0 | 0.0 | 0.00 | 0.00 | 0.00 | 92 | 1014.4 |
| 20260905123029 | 76 | 1 | 0.0 | 0.0 | 0.00 | 0.00 | 0.00 | 93 | 1014.5 |
| 20260905122529 | 75 | 1 | 0.0 | 0.0 | 0.00 | 0.00 | 0.00 | 93 | 1014.5 |
| 20260905122028 | 74 | 1 | 0.0 | 0.0 | 0.00 | 0.00 | 0.00 | 94 | 1014.4 |
| 20260905121530 | 74 | 1 | 0.0 | 0.0 | 0.00 | 0.00 | 0.00 | 94 | 1014.3 |
| 20260905121030 | 74 | 1 | 0.0 | 0.0 | 0.00 | 0.00 | 0.00 | 94 | 1014.2 |
| 20260905120530 | 73 | 1 | 0.0 | 0.0 | 0.00 | 0.00 | 0.00 | 94 | 1014.2 |
| 20260905120029 | 73 | 1 | 0.0 | 0.0 | 0.00 | 0.00 | 0.00 | 94 | 1014.2 |
| 20260905115529 | 73 | 1 | 0.0 | 0.0 | 0.00 | 0.00 | 0.00 | 94 | 1014.2 |
| 20260905115029 | 73 | 1 | 0.0 | 0.0 | 0.00 | 0.00 | 0.00 | 94 | 1014.1 |